Regional Weather Roundup
Issued by NWS Sioux Falls, SD

Home | Current Version | Previous Version | Text Only | Print | Product List | Glossary On
Versions: 1 2 3 4 5 6 7 8 9 10 11 12 13 14 15 16 17 18 19 20 21 22 23 24 25 26 27 28 29 30 31 32 33 34 35 36 37 38 39 40 41 42 43 44 45 46 47 48 49 50
474
ASUS43 KFSD 280002
RWRFSD

WEATHER ROUNDUP FOR SE SOUTH DAKOTA/SW MINNESOTA/NW IOWA
NATIONAL WEATHER SERVICE SIOUX FALLS SD
700 PM CDT SUN MAY 27 2018

NOTE: "FAIR" INDICATES FEW OR NO CLOUDS BELOW 12,000 FEET WITH NO
SIGNIFICANT WEATHER AND OR OBSTRUCTIONS TO VISIBILITY.


SDZ038>040-050-052>070-280100-
SOUTHEAST SOUTH DAKOTA

CITY           SKY/WX    TMP DP  RH WIND       PRES   REMARKS
BROOKINGS      MOSUNNY   94  61  33 SW13      29.77F
CHAMBERLAIN    SUNNY     94  69  44 W6        29.74R HX  99
6HR MIN TEMP:  92; 6HR MAX TEMP:  97;

HURON          MOSUNNY   94  56  27 S17G29    29.70F
6HR MIN TEMP:  90; 6HR MAX TEMP:  98;

MADISON        FAIR      88  57  35 S14G21    29.79S
MITCHELL       MOSUNNY   92  61  35 S15G24    29.73F
6HR MIN TEMP:  92; 6HR MAX TEMP:  97;

SIOUX FALLS    PTSUNNY   91  62  37 S12G18    29.77S
6HR MIN TEMP:  91; 6HR MAX TEMP:  95;

WINNER         FAIR      87  66  49 S8        29.77R
YANKTON        MOSUNNY   95  58  28 S12       29.75F
$$

MNZ071-072-080-081-089-090-097-098-280100-
SOUTHWEST MINNESOTA

CITY           SKY/WX    TMP DP  RH WIND       PRES   REMARKS
FAIRMONT       CLOUDY    95  59  30 S12       29.79F
JACKSON        CLOUDY    91  55  29 SE8       29.80F
LUVERNE        CLOUDY    95  46  18 SW16G23   29.78S
MARSHALL       CLOUDY    95  62  33 SW8       29.74F HX  96
6HR MIN TEMP:  90; 6HR MAX TEMP:  99;

MONTEVIDEO     CLOUDY    97  55  24 S14       29.73F HX  95
PIPESTONE      MOSUNNY   95  57  28 W10       29.79F
REDWOOD FALLS  MOSUNNY   93  55  27 SE13      29.73F
WINDOM         CLOUDY    93  59  31 SE8       29.78S
WORTHINGTON    CLOUDY    96  56  26 SW10      29.80S
$$

IAZ001>003-012>014-020>022-031-032-NEZ013-014-SDZ071-280100-
NORTHWEST IOWA

CITY           SKY/WX    TMP DP  RH WIND       PRES   REMARKS
CHEROKEE       MOSUNNY   91  63  38 SW7       29.79F
DENISON        CLOUDY    95  59  30 S6        29.82F
ESTHERVILLE    CLOUDY    91  60  35 S8        29.79S
ORANGE CITY    PTSUNNY   97  54  23 SW14      29.79F
SHELDON        PTSUNNY   97  50  20 SW8G17    29.78S
SIOUX CITY     MOSUNNY   96  58  27 S13       29.78F HX  95
6HR MIN TEMP:  96; 6HR MAX TEMP: 102;

SPENCER        MOSUNNY   97  57  26 SW12      29.79S HX  96
6HR MIN TEMP:  95; 6HR MAX TEMP: 100;

STORM LAKE     CLOUDY    97  55  24 SW14      29.82S HX  95
$$

ABBREVIATIONS USED IN REMARKS
   TC - TEMPERATURE IN CELSIUS
  WCI - WIND CHILL INDEX
   HX - HEAT INDEX
  VSB - VISIBILITY





USA.gov is the U.S. government's official web portal to all federal, state and local government web resources and services.